DW9435 Weather Reports


time (UTC)temp
C
wind
direction
speed
KPH
gust
KPH
rain 1hr
cm
rain 24hr
cm
rain mn
cm
humidity
%
barometer
mb
20260508203047 21 6 19.3 30.6 0.00 0.00 0.00 22 1008.4
20260508201547 21 352 12.9 35.4 0.00 0.00 0.00 23 1008.5
20260508200054 21 321 12.9 32.2 0.00 0.00 0.00 24 1008.7
20260508194546 20 6 11.3 29.0 0.00 0.00 0.00 23 1008.6
20260508193050 21 346 12.9 35.4 0.00 0.00 0.00 24 1008.8
20260508191552 21 10 20.9 37.0 0.00 0.00 0.00 23 1008.9
20260508190045 21 22 16.1 32.2 0.00 0.00 0.00 26 1008.9
20260508184541 20 36 16.1 33.8 0.00 0.00 0.00 25 1009.1
20260508183039 20 13 22.5 33.8 0.00 0.00 0.00 26 1009.3
20260508181538 20 18 12.9 30.6 0.00 0.00 0.00 29 1009.5
20260508180036 20 23 14.5 30.6 0.00 0.00 0.00 30 1009.6
20260508174539 20 314 12.9 20.9 0.00 0.00 0.00 30 1009.8
20260508173032 19 356 14.5 25.7 0.00 0.00 0.00 29 1009.8
20260508171531 19 333 9.7 22.5 0.00 0.00 0.00 29 1009.7
20260508170030 19 338 12.9 22.5 0.00 0.00 0.00 27 1009.6
20260508164534 18 6 4.8 11.3 0.00 0.00 0.00 33 1009.6
20260508163025 18 300 1.6 11.3 0.00 0.00 0.00 35 1009.5
20260508161523 18 323 1.6 8.0 0.00 0.00 0.00 35 1009.5
20260508160030 18 326 1.6 4.8 0.00 0.00 0.00 35 1009.4
20260508154524 17 45 3.2 8.0 0.00 0.00 0.00 38 1009.4
20260508153020 17 340 1.6 4.8 0.00 0.00 0.00 42 1009.3
20260508151518 17 315 0.0 3.2 0.00 0.00 0.00 43 1009.3
20260508150017 17 15 1.6 3.2 0.00 0.00 0.00 38 1009.2
20260508144517 17 38 0.0 4.8 0.00 0.00 0.00 41 1009.1
20260508143015 18 215 0.0 0.0 0.00 0.00 0.00 35 1009.2
20260508141514 16 248 0.0 1.6 0.00 0.00 0.00 37 1009.1
20260508140012 16 188 3.2 4.8 0.00 0.00 0.00 37 1009.0
20260508134511 15 158 3.2 4.8 0.00 0.00 0.00 39 1008.9
20260508133009 15 155 1.6 4.8 0.00 0.00 0.00 40 1008.8
20260508131510 14 174 0.0 3.2 0.00 0.00 0.00 41 1008.7
20260508130007 13 162 3.2 4.8 0.00 0.00 0.00 43 1008.5
20260508124505 13 162 4.8 6.4 0.00 0.00 0.00 42 1008.3
20260508123003 14 233 0.0 3.2 0.00 0.00 0.00 39 1008.3
20260508121504 14 134 1.6 3.2 0.00 0.00 0.00 40 1008.2
20260508120004 13 165 0.0 1.6 0.00 0.00 0.00 42 1008.3
20260508114502 13 165 1.6 4.8 0.00 0.00 0.00 42 1008.2
20260508113107 14 275 0.0 4.8 0.00 0.00 0.00 39 1008.1
20260508111556 14 148 3.2 6.4 0.00 0.00 0.00 38 1007.8
20260508110057 14 236 1.6 3.2 0.00 0.00 0.00 39 1007.9
20260508104620 15 129 3.2 6.4 0.00 0.00 0.00 37 1007.7
20260508103052 14 165 4.8 8.0 0.00 0.00 0.00 39 1007.8
20260508101552 14 224 1.6 6.4 0.00 0.00 0.00 39 1007.8
20260508100050 14 194 3.2 6.4 0.00 0.00 0.00 38 1007.7
20260508094550 15 224 1.6 4.8 0.00 0.00 0.00 37 1007.7
20260508093048 14 172 3.2 4.8 0.00 0.00 0.00 37 1007.6
20260508091545 15 150 3.2 4.8 0.00 0.00 0.00 35 1007.6
20260508084544 16 134 0.0 3.2 0.00 0.00 0.00 34 1007.7
20260508083102 16 174 4.8 8.0 0.00 0.00 0.00 35 1007.6
20260508081553 16 224 1.6 8.0 0.00 0.00 0.00 35 1007.6
20260508080042 16 151 4.8 6.4 0.00 0.00 0.00 35 1007.6
20260508074540 16 217 4.8 6.4 0.00 0.00 0.00 34 1007.6
20260508073039 17 115 1.6 1.6 0.00 0.00 0.00 31 1007.5
20260508071538 17 135 3.2 6.4 0.00 0.00 0.00 31 1007.6
20260508070111 17 122 3.2 8.0 0.00 0.00 0.00 32 1007.7
20260508064539 16 82 3.2 8.0 0.00 0.00 0.00 34 1007.7
20260508063036 16 82 3.2 8.0 0.00 0.00 0.00 34 1007.8
20260508061530 17 70 0.0 3.2 0.00 0.00 0.00 30 1007.6
20260508060030 17 133 0.0 3.2 0.00 0.00 0.00 30 1007.5
20260508054528 17 131 1.6 4.8 0.00 0.00 0.00 30 1007.5
20260508053027 18 145 3.2 6.4 0.00 0.00 0.00 30 1007.3
20260508051527 18 136 1.6 4.8 0.00 0.00 0.00 29 1007.3
20260508050030 18 132 1.6 3.2 0.00 0.00 0.00 29 1007.4
20260508044526 18 131 3.2 4.8 0.00 0.00 0.00 29 1007.5
20260508043047 17 150 1.6 4.8 0.00 0.00 0.00 31 1007.5
20260508041526 17 150 3.2 4.8 0.00 0.00 0.00 31 1007.5
20260508040026 18 165 0.0 4.8 0.00 0.00 0.00 28 1007.6
20260508034523 18 157 3.2 4.8 0.00 0.00 0.00 28 1007.3
20260508033022 19 124 1.6 4.8 0.00 0.00 0.00 26 1007.3
20260508031523 19 108 3.2 3.2 0.00 0.00 0.00 26 1007.3
20260508030028 20 90 0.0 1.6 0.00 0.00 0.00 26 1007.2
20260508024521 20 108 1.6 3.2 0.00 0.00 0.00 26 1007.1
20260508023020 20 77 0.0 0.0 0.00 0.00 0.00 26 1007.1
20260508021520 22 60 0.0 1.6 0.00 0.00 0.00 25 1007.0
20260508020018 22 60 0.0 1.6 0.00 0.00 0.00 23 1006.9
20260508014517 21 65 1.6 6.4 0.00 0.00 0.00 24 1006.9
20260508013015 22 72 0.0 4.8 0.00 0.00 0.00 25 1007.1
20260508011515 21 65 1.6 6.4 0.00 0.00 0.00 25 1007.1
20260508010022 21 43 1.6 4.8 0.00 0.00 0.00 26 1007.4
20260508004510 21 51 3.2 6.4 0.00 0.00 0.00 25 1007.6
20260508003009 21 56 1.6 4.8 0.00 0.00 0.00 25 1007.6
20260508001508 21 58 1.6 17.7 0.00 0.00 0.00 25 1007.8
20260508000006 21 60 6.4 14.5 0.00 0.00 0.00 25 1008.1
20260507234505 22 18 6.4 14.5 0.00 0.00 0.00 23 1008.1
20260507233003 22 36 8.0 19.3 0.00 0.00 0.00 25 1008.3
20260507231502 22 16 8.0 16.1 0.00 0.00 0.00 24 1008.5
20260507230112 22 15 6.4 27.4 0.00 0.00 0.00 25 1008.7
20260507230001 22 4 8.0 27.4 0.00 0.00 0.00 24 1008.7
20260507224558 22 351 3.2 27.4 0.00 0.00 0.00 24 1008.9
20260507223057 21 13 8.0 17.7 0.00 0.00 0.00 24 1009.2
20260507221553 21 34 14.5 19.3 0.00 0.00 0.00 23 1009.3
20260507220051 22 15 6.4 20.9 0.00 0.00 0.00 23 1009.6
20260507214550 22 262 0.0 11.3 0.00 0.00 0.00 23 1009.8
20260507213054 22 310 6.4 20.9 0.00 0.00 0.00 23 1010.2
20260507211544 21 57 4.8 20.9 0.00 0.00 0.00 24 1010.5
20260507210042 21 271 1.6 12.9 0.00 0.00 0.00 23 1010.8
20260507204544 21 165 3.2 12.9 0.00 0.00 0.00 23 1010.9